Saint Bonnet de Bellac- Haute Vienne - France
Donnes mto: dimanche, 29/04/2012
Date Horaire Temp. E. Hum. E. P.atmo. Pluie Vent Direction Direction Ensoleilleme Solaire P. de rose Temp au vent Rafales
29/04/2012 00:00 11,4 C 94 % 997,4 hPa 0,2 mm 0,0 km/h (0 Bft) N-NE 22 0 min 0 W/m 10,5 C 11,4 C 0,0 km/h (0 Bft)
29/04/2012 00:10 11,4 C 94 % 997,3 hPa 0,1 mm 0,0 km/h (0 Bft) N-NE 22 0 min 0 W/m 10,5 C 11,4 C 0,0 km/h (0 Bft)
29/04/2012 00:20 11,4 C 94 % 997,2 hPa 0,1 mm 0,0 km/h (0 Bft) N-NE 22 0 min 0 W/m 10,5 C 11,4 C 0,0 km/h (0 Bft)
29/04/2012 00:30 11,3 C 94 % 997,0 hPa 0,0 mm 0,0 km/h (0 Bft) N-NE 22 0 min 0 W/m 10,4 C 11,3 C 3,2 km/h (1 Bft)
29/04/2012 00:40 11,3 C 94 % 997,0 hPa 0,0 mm 0,0 km/h (0 Bft) N-NE 22 0 min 0 W/m 10,4 C 11,3 C 0,0 km/h (0 Bft)
29/04/2012 00:50 11,3 C 95 % 996,8 hPa 0,0 mm 0,4 km/h (0 Bft) NE 45 0 min 0 W/m 10,5 C 11,3 C 0,4 km/h (0 Bft)
29/04/2012 01:00 11,4 C 95 % 996,7 hPa 0,1 mm 1,4 km/h (1 Bft) E-SE 112 0 min 0 W/m 10,6 C 11,4 C 4,3 km/h (1 Bft)
29/04/2012 01:10 11,4 C 95 % 996,7 hPa 0,0 mm 5,8 km/h (2 Bft) E-SE 112 0 min 0 W/m 10,6 C 11,4 C 7,2 km/h (2 Bft)
29/04/2012 01:20 11,6 C 95 % 996,6 hPa 0,0 mm 9,4 km/h (2 Bft) S-SE 157 0 min 0 W/m 10,8 C 11,6 C 12,6 km/h (3 Bft)
29/04/2012 01:30 11,8 C 95 % 996,3 hPa 0,0 mm 10,4 km/h (2 Bft) S-SO 202 0 min 0 W/m 11,0 C 11,8 C 18,7 km/h (3 Bft)
29/04/2012 01:40 12,1 C 95 % 996,5 hPa 0,0 mm 11,2 km/h (2 Bft) S-SO 202 0 min 0 W/m 11,3 C 12,1 C 11,2 km/h (2 Bft)
29/04/2012 01:50 12,0 C 94 % 996,5 hPa 0,0 mm 15,5 km/h (3 Bft) SO 225 0 min 0 W/m 11,1 C 12,0 C 18,4 km/h (3 Bft)
29/04/2012 02:00 11,8 C 93 % 996,3 hPa 0,0 mm 10,1 km/h (2 Bft) S-SO 202 0 min 0 W/m 10,7 C 11,8 C 12,6 km/h (3 Bft)
29/04/2012 02:10 11,4 C 93 % 996,6 hPa 0,0 mm 11,5 km/h (2 Bft) S 180 0 min 0 W/m 10,3 C 11,4 C 14,8 km/h (3 Bft)
29/04/2012 02:20 11,2 C 93 % 996,9 hPa 0,0 mm 8,6 km/h (2 Bft) S-SO 202 0 min 0 W/m 10,1 C 11,2 C 18,4 km/h (3 Bft)
29/04/2012 02:30 11,2 C 93 % 997,2 hPa 0,0 mm 8,6 km/h (2 Bft) N 360 0 min 0 W/m 10,1 C 11,2 C 8,6 km/h (2 Bft)
29/04/2012 02:40 11,2 C 93 % 997,4 hPa 0,0 mm 8,6 km/h (2 Bft) N 360 0 min 0 W/m 10,1 C 11,2 C 8,6 km/h (2 Bft)
29/04/2012 02:50 10,8 C 94 % 997,6 hPa 0,1 mm 12,2 km/h (2 Bft) S-SO 202 0 min 0 W/m 9,9 C 10,8 C 15,5 km/h (3 Bft)
29/04/2012 03:02 10,8 C 94 % 997,8 hPa 0,0 mm 13,7 km/h (3 Bft) SO 225 0 min 0 W/m 9,9 C 10,8 C 22,0 km/h (4 Bft)
29/04/2012 03:10 10,8 C 94 % 997,8 hPa 0,0 mm 8,3 km/h (2 Bft) S-SO 202 0 min 0 W/m 9,9 C 10,8 C 11,5 km/h (2 Bft)
29/04/2012 03:20 10,8 C 94 % 997,8 hPa 0,2 mm 6,5 km/h (2 Bft) SO 225 0 min 0 W/m 9,9 C 10,8 C 6,5 km/h (2 Bft)
29/04/2012 03:30 10,8 C 95 % 997,9 hPa 0,1 mm 6,1 km/h (2 Bft) SO 225 0 min 0 W/m 10,0 C 10,8 C 10,8 km/h (2 Bft)
29/04/2012 03:40 10,8 C 95 % 998,0 hPa 0,1 mm 11,2 km/h (2 Bft) S-SO 202 0 min 0 W/m 10,0 C 10,8 C 12,6 km/h (3 Bft)
29/04/2012 03:50 10,8 C 95 % 998,0 hPa 0,1 mm 11,5 km/h (2 Bft) SO 225 0 min 0 W/m 10,0 C 10,8 C 11,5 km/h (2 Bft)
29/04/2012 04:00 10,8 C 95 % 998,0 hPa 0,1 mm 10,4 km/h (2 Bft) S-SO 202 0 min 0 W/m 10,0 C 10,8 C 10,4 km/h (2 Bft)
29/04/2012 04:10 10,6 C 94 % 998,3 hPa 0,2 mm 10,1 km/h (2 Bft) S-SO 202 0 min 0 W/m 9,7 C 10,6 C 13,7 km/h (3 Bft)
29/04/2012 04:20 10,3 C 94 % 998,5 hPa 0,0 mm 10,4 km/h (2 Bft) O-SO 247 0 min 0 W/m 9,4 C 10,3 C 10,4 km/h (2 Bft)
29/04/2012 04:30 10,1 C 94 % 998,7 hPa 0,2 mm 11,2 km/h (2 Bft) SO 225 0 min 0 W/m 9,2 C 10,1 C 22,3 km/h (4 Bft)
29/04/2012 04:40 9,9 C 94 % 998,5 hPa 0,1 mm 6,8 km/h (2 Bft) SO 225 0 min 0 W/m 9,0 C 9,2 C 6,8 km/h (2 Bft)
29/04/2012 04:50 9,8 C 94 % 998,8 hPa 0,0 mm 14,0 km/h (3 Bft) S 180 0 min 0 W/m 8,9 C 7,8 C 16,6 km/h (3 Bft)
29/04/2012 05:00 9,8 C 94 % 998,7 hPa 0,1 mm 8,3 km/h (2 Bft) S 180 0 min 0 W/m 8,9 C 8,7 C 13,3 km/h (3 Bft)
29/04/2012 05:10 9,7 C 94 % 998,6 hPa 0,0 mm 4,3 km/h (1 Bft) SO 225 0 min 0 W/m 8,8 C 9,7 C 7,9 km/h (2 Bft)
29/04/2012 05:20 9,7 C 94 % 998,9 hPa 0,0 mm 8,6 km/h (2 Bft) S 180 0 min 0 W/m 8,8 C 8,5 C 10,1 km/h (2 Bft)
29/04/2012 05:30 9,6 C 94 % 998,8 hPa 0,0 mm 7,6 km/h (2 Bft) S-SO 202 0 min 0 W/m 8,7 C 8,6 C 9,4 km/h (2 Bft)
29/04/2012 05:40 9,6 C 94 % 998,7 hPa 0,0 mm 9,4 km/h (2 Bft) O-SO 247 0 min 0 W/m 8,7 C 8,3 C 15,8 km/h (3 Bft)
29/04/2012 05:50 9,6 C 94 % 998,8 hPa 0,0 mm 7,2 km/h (2 Bft) S-SO 202 0 min 0 W/m 8,7 C 8,7 C 17,6 km/h (3 Bft)
29/04/2012 06:00 9,6 C 94 % 999,0 hPa 0,0 mm 11,9 km/h (2 Bft) S-SO 202 0 min 0 W/m 8,7 C 7,8 C 15,1 km/h (3 Bft)
29/04/2012 06:10 9,5 C 94 % 999,0 hPa 0,0 mm 14,8 km/h (3 Bft) S-SO 202 0 min 0 W/m 8,6 C 7,3 C 24,1 km/h (4 Bft)
29/04/2012 06:20 9,6 C 94 % 999,3 hPa 0,0 mm 12,2 km/h (2 Bft) O-SO 247 0 min 0 W/m 8,7 C 7,8 C 14,0 km/h (3 Bft)
29/04/2012 06:30 9,5 C 93 % 999,4 hPa 0,0 mm 13,0 km/h (3 Bft) S-SO 202 0 min 0 W/m 8,4 C 7,6 C 16,9 km/h (3 Bft)
29/04/2012 06:40 9,5 C 93 % 999,5 hPa 0,0 mm 9,0 km/h (2 Bft) S-SO 202 0 min 0 W/m 8,4 C 8,2 C 9,0 km/h (2 Bft)
29/04/2012 06:50 9,5 C 93 % 999,8 hPa 0,0 mm 11,5 km/h (2 Bft) S 180 0 min 0 W/m 8,4 C 7,8 C 15,1 km/h (3 Bft)
29/04/2012 07:00 9,4 C 93 % 999,7 hPa 0,0 mm 17,6 km/h (3 Bft) S-SO 202 2 min 0 W/m 8,3 C 6,9 C 19,8 km/h (3 Bft)
29/04/2012 07:10 9,4 C 92 % 1000,0 hPa 0,0 mm 10,8 km/h (2 Bft) S 180 2 min 0 W/m 8,2 C 7,8 C 18,7 km/h (3 Bft)
29/04/2012 07:20 9,4 C 92 % 1000,5 hPa 0,1 mm 10,8 km/h (2 Bft) S 180 2 min 0 W/m 8,2 C 7,8 C 18,7 km/h (3 Bft)
29/04/2012 07:30 9,3 C 93 % 1000,7 hPa 0,0 mm 19,4 km/h (3 Bft) SO 225 2 min 0 W/m 8,2 C 6,6 C 19,4 km/h (3 Bft)
29/04/2012 07:40 9,1 C 92 % 1000,9 hPa 0,0 mm 18,0 km/h (3 Bft) S-SO 202 2 min 0 W/m 7,9 C 6,5 C 23,8 km/h (4 Bft)
29/04/2012 07:50 9,1 C 92 % 1001,2 hPa 0,0 mm 10,4 km/h (2 Bft) S-SE 157 2 min 0 W/m 7,9 C 7,5 C 10,4 km/h (2 Bft)
29/04/2012 08:00 8,9 C 92 % 1001,3 hPa 0,1 mm 15,8 km/h (3 Bft) SO 225 2 min 0 W/m 7,7 C 6,5 C 22,0 km/h (4 Bft)
29/04/2012 08:10 8,9 C 93 % 1001,6 hPa 0,0 mm 15,8 km/h (3 Bft) S-SO 202 2 min 0 W/m 7,8 C 6,5 C 25,2 km/h (4 Bft)
29/04/2012 08:20 8,9 C 93 % 1001,8 hPa 0,0 mm 14,8 km/h (3 Bft) S-SO 202 2 min 0 W/m 7,8 C 6,6 C 20,2 km/h (4 Bft)
29/04/2012 08:30 9,1 C 92 % 1002,1 hPa 0,0 mm 22,0 km/h (4 Bft) S-SO 202 2 min 0 W/m 7,9 C 6,0 C 29,5 km/h (5 Bft)
29/04/2012 08:40 9,1 C 92 % 1002,3 hPa 0,1 mm 16,2 km/h (3 Bft) S-SO 202 2 min 0 W/m 7,9 C 6,7 C 19,1 km/h (3 Bft)
29/04/2012 08:50 9,1 C 91 % 1002,7 hPa 0,0 mm 17,6 km/h (3 Bft) SO 225 2 min 0 W/m 7,7 C 6,5 C 22,7 km/h (4 Bft)
29/04/2012 09:00 9,1 C 90 % 1002,8 hPa 0,0 mm 16,6 km/h (3 Bft) S-SE 157 2 min 0 W/m 7,5 C 6,6 C 22,0 km/h (4 Bft)
29/04/2012 09:10 9,2 C 90 % 1003,0 hPa 0,0 mm 17,6 km/h (3 Bft) S-SO 202 2 min 0 W/m 7,6 C 6,6 C 19,8 km/h (3 Bft)
29/04/2012 09:20 9,2 C 90 % 1003,2 hPa 0,0 mm 17,6 km/h (3 Bft) S-SO 202 2 min 0 W/m 7,6 C 6,6 C 19,8 km/h (3 Bft)
29/04/2012 09:30 9,5 C 89 % 1003,3 hPa 0,0 mm 16,2 km/h (3 Bft) S 180 2 min 0 W/m 7,8 C 7,2 C 16,2 km/h (3 Bft)
29/04/2012 09:40 9,5 C 89 % 1003,5 hPa 0,0 mm 13,7 km/h (3 Bft) S-SO 202 2 min 0 W/m 7,8 C 7,5 C 22,7 km/h (4 Bft)
29/04/2012 09:50 9,6 C 89 % 1003,7 hPa 0,0 mm 19,4 km/h (3 Bft) O-SO 247 2 min 0 W/m 7,9 C 6,9 C 19,4 km/h (3 Bft)
29/04/2012 10:00 9,7 C 87 % 1003,7 hPa 0,0 mm 15,8 km/h (3 Bft) S-SE 157 2 min 0 W/m 7,6 C 7,4 C 25,2 km/h (4 Bft)
29/04/2012 10:10 9,8 C 87 % 1003,9 hPa 0,0 mm 14,4 km/h (3 Bft) O-SO 247 2 min 0 W/m 7,7 C 7,7 C 24,1 km/h (4 Bft)
29/04/2012 10:20 9,9 C 87 % 1004,0 hPa 0,0 mm 11,2 km/h (2 Bft) S 180 2 min 0 W/m 7,8 C 8,3 C 11,2 km/h (2 Bft)
29/04/2012 10:30 10,0 C 85 % 1004,0 hPa 0,0 mm 26,6 km/h (4 Bft) S-SO 202 2 min 0 W/m 7,6 C 6,8 C 33,5 km/h (5 Bft)
29/04/2012 10:40 10,4 C 86 % 1004,3 hPa 0,0 mm 16,2 km/h (3 Bft) S-SO 202 2 min 0 W/m 8,2 C 10,4 C 16,2 km/h (3 Bft)
29/04/2012 10:50 11,1 C 86 % 1004,3 hPa 0,0 mm 14,8 km/h (3 Bft) S-SO 202 2 min 0 W/m 8,8 C 11,1 C 14,8 km/h (3 Bft)
29/04/2012 11:00 11,6 C 82 % 1004,3 hPa 0,0 mm 9,7 km/h (2 Bft) SO 225 2 min 0 W/m 8,6 C 11,6 C 22,0 km/h (4 Bft)
29/04/2012 11:10 11,8 C 81 % 1004,3 hPa 0,0 mm 22,0 km/h (4 Bft) S-SO 202 2 min 0 W/m 8,6 C 11,8 C 22,0 km/h (4 Bft)
29/04/2012 11:20 11,1 C 82 % 1004,4 hPa 0,0 mm 18,0 km/h (3 Bft) O-SO 247 2 min 0 W/m 8,1 C 11,1 C 23,4 km/h (4 Bft)
29/04/2012 11:30 11,4 C 83 % 1004,6 hPa 0,0 mm 25,6 km/h (4 Bft) SO 225 2 min 0 W/m 8,6 C 11,4 C 34,2 km/h (5 Bft)
29/04/2012 11:40 12,1 C 80 % 1004,8 hPa 0,0 mm 15,8 km/h (3 Bft) SO 225 2 min 0 W/m 8,8 C 12,1 C 25,9 km/h (4 Bft)
29/04/2012 11:50 12,2 C 78 % 1005,0 hPa 0,0 mm 14,8 km/h (3 Bft) S-SO 202 2 min 0 W/m 8,5 C 12,2 C 14,8 km/h (3 Bft)
29/04/2012 12:00 12,1 C 78 % 1005,3 hPa 0,0 mm 22,3 km/h (4 Bft) S 180 2 min 0 W/m 8,4 C 12,1 C 30,2 km/h (5 Bft)
29/04/2012 12:10 11,9 C 78 % 1005,4 hPa 0,0 mm 10,4 km/h (2 Bft) S-SO 202 2 min 0 W/m 8,2 C 11,9 C 14,8 km/h (3 Bft)
29/04/2012 12:20 11,9 C 79 % 1005,5 hPa 0,0 mm 14,0 km/h (3 Bft) S 180 2 min 0 W/m 8,4 C 11,9 C 14,0 km/h (3 Bft)
29/04/2012 12:30 12,1 C 79 % 1005,7 hPa 0,0 mm 16,9 km/h (3 Bft) S 180 2 min 0 W/m 8,6 C 12,1 C 23,0 km/h (4 Bft)
29/04/2012 12:40 12,8 C 76 % 1005,8 hPa 0,0 mm 18,7 km/h (3 Bft) S 180 2 min 0 W/m 8,7 C 12,8 C 29,5 km/h (5 Bft)
29/04/2012 12:50 12,8 C 73 % 1005,9 hPa 0,0 mm 16,6 km/h (3 Bft) S-SE 157 2 min 0 W/m 8,1 C 12,8 C 16,6 km/h (3 Bft)
29/04/2012 13:00 12,5 C 74 % 1006,0 hPa 0,0 mm 15,1 km/h (3 Bft) SO 225 2 min 0 W/m 8,0 C 12,5 C 15,8 km/h (3 Bft)
29/04/2012 13:10 12,3 C 76 % 1006,0 hPa 0,0 mm 6,1 km/h (2 Bft) S-SE 157 2 min 0 W/m 8,2 C 12,3 C 15,1 km/h (3 Bft)
29/04/2012 13:20 12,3 C 76 % 1005,8 hPa 0,0 mm 10,8 km/h (2 Bft) SE 135 2 min 0 W/m 8,2 C 12,3 C 14,4 km/h (3 Bft)
29/04/2012 13:30 12,8 C 79 % 1006,2 hPa 0,0 mm 21,6 km/h (4 Bft) SO 225 2 min 0 W/m 9,2 C 12,8 C 22,0 km/h (4 Bft)
29/04/2012 13:40 12,3 C 79 % 1006,5 hPa 0,0 mm 10,4 km/h (2 Bft) SO 225 2 min 0 W/m 8,8 C 12,3 C 10,4 km/h (2 Bft)
29/04/2012 13:50 11,8 C 83 % 1006,6 hPa 0,1 mm 7,2 km/h (2 Bft) SO 225 2 min 0 W/m 9,0 C 11,8 C 17,6 km/h (3 Bft)
29/04/2012 14:00 11,8 C 85 % 1006,6 hPa 0,0 mm 10,1 km/h (2 Bft) S-SO 202 2 min 0 W/m 9,4 C 11,8 C 17,3 km/h (3 Bft)
29/04/2012 14:10 11,7 C 82 % 1006,5 hPa 0,1 mm 16,6 km/h (3 Bft) SO 225 2 min 0 W/m 8,7 C 11,7 C 28,8 km/h (5 Bft)
29/04/2012 14:20 11,6 C 81 % 1006,6 hPa 0,0 mm 18,7 km/h (3 Bft) S-SO 202 2 min 0 W/m 8,5 C 11,6 C 27,0 km/h (5 Bft)
29/04/2012 14:30 12,1 C 82 % 1006,7 hPa 0,0 mm 22,3 km/h (4 Bft) S-SO 202 2 min 0 W/m 9,1 C 12,1 C 22,3 km/h (4 Bft)
29/04/2012 14:40 13,1 C 78 % 1006,9 hPa 0,0 mm 9,7 km/h (2 Bft) O-SO 247 2 min 0 W/m 9,4 C 13,1 C 9,7 km/h (2 Bft)
29/04/2012 14:50 13,4 C 73 % 1007,1 hPa 0,0 mm 18,4 km/h (3 Bft) O-SO 247 2 min 0 W/m 8,7 C 13,4 C 28,1 km/h (5 Bft)
29/04/2012 15:00 13,3 C 75 % 1007,2 hPa 0,0 mm 15,8 km/h (3 Bft) S-SO 202 2 min 0 W/m 9,0 C 13,3 C 24,5 km/h (4 Bft)
29/04/2012 15:10 12,8 C 76 % 1007,4 hPa 0,0 mm 10,4 km/h (2 Bft) SO 225 2 min 0 W/m 8,7 C 12,8 C 15,5 km/h (3 Bft)
29/04/2012 15:20 13,0 C 76 % 1007,3 hPa 0,0 mm 9,4 km/h (2 Bft) S-SO 202 2 min 0 W/m 8,9 C 13,0 C 17,3 km/h (3 Bft)
29/04/2012 15:30 13,8 C 73 % 1007,2 hPa 0,0 mm 10,1 km/h (2 Bft) SO 225 2 min 0 W/m 9,0 C 13,8 C 19,1 km/h (3 Bft)
29/04/2012 15:40 14,2 C 73 % 1007,4 hPa 0,0 mm 6,5 km/h (2 Bft) SO 225 2 min 0 W/m 9,4 C 14,2 C 7,9 km/h (2 Bft)
29/04/2012 15:50 13,3 C 77 % 1007,8 hPa 0,0 mm 11,9 km/h (2 Bft) SO 225 2 min 0 W/m 9,4 C 13,3 C 18,0 km/h (3 Bft)
29/04/2012 16:00 11,9 C 80 % 1007,9 hPa 0,1 mm 13,7 km/h (3 Bft) SO 225 2 min 0 W/m 8,6 C 11,9 C 22,3 km/h (4 Bft)
29/04/2012 16:10 11,3 C 84 % 1008,0 hPa 0,0 mm 10,4 km/h (2 Bft) S-SO 202 2 min 0 W/m 8,7 C 11,3 C 16,6 km/h (3 Bft)
29/04/2012 16:20 11,5 C 84 % 1007,7 hPa 0,0 mm 7,2 km/h (2 Bft) S-SO 202 2 min 0 W/m 8,9 C 11,5 C 12,2 km/h (2 Bft)
29/04/2012 16:30 11,6 C 79 % 1007,8 hPa 0,0 mm 11,9 km/h (2 Bft) S-SO 202 2 min 0 W/m 8,1 C 11,6 C 12,6 km/h (3 Bft)
29/04/2012 16:40 11,7 C 78 % 1007,9 hPa 0,0 mm 8,6 km/h (2 Bft) S 180 2 min 0 W/m 8,0 C 11,7 C 13,3 km/h (3 Bft)
29/04/2012 16:50 11,9 C 78 % 1007,9 hPa 0,0 mm 4,3 km/h (1 Bft) S-SO 202 2 min 0 W/m 8,2 C 11,9 C 8,6 km/h (2 Bft)
29/04/2012 17:00 12,1 C 77 % 1007,8 hPa 0,0 mm 16,6 km/h (3 Bft) S-SO 202 2 min 0 W/m 8,2 C 12,1 C 18,7 km/h (3 Bft)
29/04/2012 17:10 12,7 C 76 % 1007,7 hPa 0,0 mm 9,4 km/h (2 Bft) S-SE 157 2 min 0 W/m 8,6 C 12,7 C 19,8 km/h (3 Bft)
29/04/2012 17:20 13,4 C 76 % 1007,5 hPa 0,0 mm 6,5 km/h (2 Bft) S-SO 202 2 min 0 W/m 9,3 C 13,4 C 9,4 km/h (2 Bft)
29/04/2012 17:30 14,1 C 70 % 1007,6 hPa 0,0 mm 13,7 km/h (3 Bft) SO 225 2 min 0 W/m 8,7 C 14,1 C 13,7 km/h (3 Bft)
29/04/2012 17:40 14,4 C 71 % 1007,8 hPa 0,0 mm 7,9 km/h (2 Bft) S-SO 202 2 min 0 W/m 9,2 C 14,4 C 10,1 km/h (2 Bft)
29/04/2012 17:50 14,3 C 71 % 1007,9 hPa 0,0 mm 11,2 km/h (2 Bft) S-SO 202 2 min 0 W/m 9,1 C 14,3 C 19,1 km/h (3 Bft)
29/04/2012 18:00 14,3 C 70 % 1007,8 hPa 0,0 mm 8,6 km/h (2 Bft) SO 225 2 min 0 W/m 8,9 C 14,3 C 9,4 km/h (2 Bft)
29/04/2012 18:10 14,5 C 68 % 1007,9 hPa 0,0 mm 9,0 km/h (2 Bft) S 180 2 min 0 W/m 8,7 C 14,5 C 17,3 km/h (3 Bft)
29/04/2012 18:20 14,3 C 67 % 1008,0 hPa 0,0 mm 11,2 km/h (2 Bft) SO 225 2 min 0 W/m 8,3 C 14,3 C 14,4 km/h (3 Bft)
29/04/2012 18:30 14,1 C 68 % 1008,1 hPa 0,0 mm 14,8 km/h (3 Bft) S-SO 202 2 min 0 W/m 8,3 C 14,1 C 22,3 km/h (4 Bft)
29/04/2012 18:40 13,6 C 72 % 1008,2 hPa 0,1 mm 10,1 km/h (2 Bft) S 180 2 min 0 W/m 8,6 C 13,6 C 10,1 km/h (2 Bft)
29/04/2012 18:50 13,1 C 73 % 1008,2 hPa 0,0 mm 10,8 km/h (2 Bft) S 180 2 min 0 W/m 8,4 C 13,1 C 15,5 km/h (3 Bft)
29/04/2012 19:00 12,9 C 73 % 1008,3 hPa 0,0 mm 8,6 km/h (2 Bft) S-SO 202 2 min 0 W/m 8,2 C 12,9 C 15,5 km/h (3 Bft)
29/04/2012 19:10 12,7 C 75 % 1008,4 hPa 0,0 mm 20,5 km/h (4 Bft) S-SO 202 2 min 0 W/m 8,4 C 12,7 C 32,4 km/h (5 Bft)
29/04/2012 19:20 11,9 C 80 % 1008,6 hPa 0,0 mm 10,1 km/h (2 Bft) S-SO 202 2 min 0 W/m 8,6 C 11,9 C 16,6 km/h (3 Bft)
29/04/2012 19:30 11,3 C 80 % 1008,6 hPa 0,1 mm 14,8 km/h (3 Bft) SO 225 2 min 0 W/m 8,0 C 11,3 C 19,8 km/h (3 Bft)
29/04/2012 19:40 10,8 C 82 % 1008,8 hPa 0,0 mm 14,4 km/h (3 Bft) O-SO 247 2 min 0 W/m 7,9 C 10,8 C 27,4 km/h (5 Bft)
29/04/2012 19:50 10,4 C 85 % 1008,5 hPa 0,0 mm 9,0 km/h (2 Bft) S-SO 202 2 min 0 W/m 8,0 C 10,4 C 13,0 km/h (3 Bft)
29/04/2012 20:00 10,1 C 85 % 1008,5 hPa 0,0 mm 4,0 km/h (1 Bft) O-SO 247 2 min 0 W/m 7,7 C 10,1 C 7,6 km/h (2 Bft)
29/04/2012 20:10 10,0 C 86 % 1008,4 hPa 0,0 mm 6,8 km/h (2 Bft) SO 225 2 min 0 W/m 7,8 C 9,3 C 9,0 km/h (2 Bft)
29/04/2012 20:20 9,9 C 86 % 1008,3 hPa 0,0 mm 6,5 km/h (2 Bft) S-SO 202 2 min 0 W/m 7,7 C 9,2 C 9,7 km/h (2 Bft)
29/04/2012 20:30 9,9 C 86 % 1008,4 hPa 0,0 mm 5,8 km/h (2 Bft) S-SO 202 2 min 0 W/m 7,7 C 9,4 C 9,4 km/h (2 Bft)
29/04/2012 20:40 9,8 C 86 % 1008,5 hPa 0,0 mm 5,4 km/h (2 Bft) S-SO 202 2 min 0 W/m 7,6 C 9,4 C 6,1 km/h (2 Bft)
29/04/2012 20:50 9,8 C 86 % 1008,5 hPa 0,0 mm 4,0 km/h (1 Bft) S-SO 202 2 min 0 W/m 7,6 C 9,8 C 6,8 km/h (2 Bft)
29/04/2012 21:00 9,6 C 85 % 1008,6 hPa 0,0 mm 2,9 km/h (1 Bft) S-SO 202 0 min 0 W/m 7,2 C 9,6 C 3,6 km/h (1 Bft)
29/04/2012 21:10 9,3 C 85 % 1008,7 hPa 0,0 mm 3,2 km/h (1 Bft) S-SO 202 0 min 0 W/m 6,9 C 9,3 C 4,3 km/h (1 Bft)
29/04/2012 21:20 9,1 C 85 % 1008,8 hPa 0,0 mm 2,9 km/h (1 Bft) S-SO 202 0 min 0 W/m 6,7 C 9,1 C 6,8 km/h (2 Bft)
29/04/2012 21:30 8,8 C 85 % 1008,8 hPa 0,0 mm 2,2 km/h (1 Bft) S-SO 202 0 min 0 W/m 6,4 C 8,8 C 2,9 km/h (1 Bft)
29/04/2012 21:40 8,6 C 86 % 1009,2 hPa 0,0 mm 2,5 km/h (1 Bft) S 180 0 min 0 W/m 6,4 C 8,6 C 4,0 km/h (1 Bft)
29/04/2012 21:50 8,4 C 85 % 1009,4 hPa 0,0 mm 3,6 km/h (1 Bft) S 180 0 min 0 W/m 6,0 C 8,4 C 7,2 km/h (2 Bft)
29/04/2012 22:00 8,3 C 86 % 1009,5 hPa 0,0 mm 2,2 km/h (1 Bft) S-SO 202 0 min 0 W/m 6,1 C 8,3 C 3,6 km/h (1 Bft)
29/04/2012 22:10 8,2 C 86 % 1009,8 hPa 0,0 mm 3,6 km/h (1 Bft) S-SE 157 0 min 0 W/m 6,0 C 8,2 C 4,3 km/h (1 Bft)
29/04/2012 22:20 8,1 C 86 % 1010,1 hPa 0,0 mm 5,4 km/h (2 Bft) S-SO 202 0 min 0 W/m 5,9 C 7,5 C 8,3 km/h (2 Bft)
29/04/2012 22:30 8,1 C 86 % 1010,1 hPa 0,0 mm 1,1 km/h (1 Bft) S-SO 202 0 min 0 W/m 5,9 C 8,1 C 4,0 km/h (1 Bft)
29/04/2012 22:40 7,9 C 86 % 1010,1 hPa 0,0 mm 0,0 km/h (0 Bft) SO 225 0 min 0 W/m 5,7 C 7,9 C 0,0 km/h (0 Bft)
29/04/2012 22:50 7,8 C 86 % 1010,1 hPa 0,0 mm 0,4 km/h (0 Bft) S 180 0 min 0 W/m 5,6 C 7,8 C 0,4 km/h (0 Bft)
29/04/2012 23:00 7,7 C 87 % 1010,2 hPa 0,0 mm 0,0 km/h (0 Bft) S-SO 202 0 min 0 W/m 5,7 C 7,7 C 2,9 km/h (1 Bft)
29/04/2012 23:10 7,5 C 87 % 1010,5 hPa 0,0 mm 3,6 km/h (1 Bft) S 180 0 min 0 W/m 5,5 C 7,5 C 4,0 km/h (1 Bft)
29/04/2012 23:20 7,5 C 88 % 1010,6 hPa 0,0 mm 0,0 km/h (0 Bft) S 180 0 min 0 W/m 5,6 C 7,5 C 0,0 km/h (0 Bft)
29/04/2012 23:30 7,5 C 88 % 1010,6 hPa 0,0 mm 1,1 km/h (1 Bft) S-SE 157 0 min 0 W/m 5,6 C 7,5 C 3,6 km/h (1 Bft)
29/04/2012 23:40 7,6 C 88 % 1010,6 hPa 0,0 mm 1,4 km/h (1 Bft) S 180 0 min 0 W/m 5,7 C 7,6 C 4,3 km/h (1 Bft)
29/04/2012 23:50 7,7 C 88 % 1010,5 hPa 0,0 mm 0,0 km/h (0 Bft) S-SO 202 0 min 0 W/m 5,8 C 7,7 C 0,0 km/h (0 Bft)
_ Min-Heure 23:30 18:20 02:00 - 23:50 - - - - 23:10 08:30 23:50
Minimum _ 7,5 C 67 % 996,3 hPa - 0,0 km/h (0 Bft) - - - - 5,5 C 6,0 C 0,0 km/h (0 Bft)
_ Max-Heure 18:10 04:00 23:40 04:30 10:30 - - 20:50 23:50 01:40 18:10 11:30
Maximum _ 14,5 C 95 % 1010,6 hPa 0,2 mm 26,6 km/h
S-SO (4 Bft)
- - 2 min 0 W/m 11,3 C 14,5 C 34,2 km/h
SO (5 Bft)
Moyenne _ 10,8 C 86 % 1004,0 hPa #2,7 mm 10,5 km/h (2 Bft) S-SO - #2:48 h 0 W/m 8,4 C 10,3 C 14,5 km/h (3 Bft)
Saint Bonnet de Bellac- Haute Vienne - France